Regional Weather Roundup
Issued by NWS

Home | Current Version | Previous Version | Text Only | Print | Product List | Glossary Off
Versions: 1 2 3 4 5 6 7 8 9 10 11 12 13 14 15 16 17 18 19 20 21 22 23 24 25 26 27 28 29 30 31 32 33 34 35 36 37 38 39 40 41 42 43 44 45 46 47 48 49 50

000
ASUS45 KABQ 280601
RWRNM
WEATHER ROUNDUP FOR NEW MEXICO
NATIONAL WEATHER SERVICE ALBUQUERQUE NM
1200 AM MDT TUE APR 28 2015

NOTE: "FAIR" MEANS FEW OR NO CLOUDS BELOW 12,000 FEET AGL WITH NO
       SIGNIFICANT WEATHER OR OBSTRUCTIONS TO VISION.

      THIS PRODUCT IS RELEASED AS TWO VERSIONS.  ONE VERSION NEAR
      THE TOP OF THE HOUR CONTAINING PRELIMINARY DATA FROM ALBUQUERQUE
      AND OTHER STATIONS.  A FINAL VERSION WITH ADDITIONAL DATA IS
      ISSUED ABOUT 10 MINUTES AFTER THE HOUR.

NMZ501-503-504-510>518-280700-
NORTHWEST PLATEAU/NORTHCENTRAL MOUNTAINS

CITY           SKY/WX    TMP DP  RH WIND       PRES   REMARKS
FARMINGTON     CLOUDY    50  42  74 SE3       30.18R
6HR MIN TEMP:  50; 6HR MAX TEMP:  68; 6HR PCP:  0.06;

SANTA FE       PTCLDY    42  32  67 CALM      30.25R
6HR MIN TEMP:  40; 6HR MAX TEMP:  56;

TAOS           PTCLDY    36  21  55 NE6       30.28R WCI  31
ANGEL FIRE     CLOUDY    33  26  74 N14       30.32R WCI  23

$$
NMZ402-403-502-505>509-280700-
WESTCENTRAL MOUNTAINS/SOUTHWEST MOUNTAINS

CITY           SKY/WX    TMP DP  RH WIND       PRES   REMARKS
GALLUP         PTCLDY    43  36  76 NE6       30.20R
6HR MIN TEMP:  43; 6HR MAX TEMP:  61;

GRANTS         CLOUDY    44  39  82 SE9G16    30.24S
SILVER CITY      N/A     48  36  61 CALM      30.19S

$$
NMZ407-409-411-412-280700-
SOUTHERN DESERTS

CITY           SKY/WX    TMP DP  RH WIND       PRES   REMARKS
DEMING         PTCLDY    51  32  48 E13       30.18R
6HR MIN TEMP:  51; 6HR MAX TEMP:  66;

HOLLOMAN AFB   CLOUDY    54  31  42 NE21      30.17R
ALAMOGORDO     CLOUDY    54  30  40 SE6       30.18R
T OR C         PTCLDY    49  33  54 N16G23    30.22R
6HR MIN TEMP:  49; 6HR MAX TEMP:  60;


$$
NMZ519>523-280700-
CENTRAL VALLEYS/CENTRAL HIGHLANDS

CITY           SKY/WX    TMP DP  RH WIND       PRES   REMARKS
ALBUQUERQUE    MOCLDY    49  32  52 E12       30.25R
6HR MIN TEMP:  46; 6HR MAX TEMP:  60; 6HR PCP:  0.01;

DOUBLE EAGLE   RAIN      44  37  76 SE8       30.27R
MORIARTY ARPT  CLOUDY    43  31  62 SE5       30.29R
6HR MIN TEMP:  43; 6HR MAX TEMP:  50;

CLINES CORNERS PTCLDY    34  32  92 E10       30.25R WCI  26
6HR MIN TEMP:  34; 6HR MAX TEMP:  44;

BELEN          CLOUDY    46  41  82 S8        30.23S
6HR MIN TEMP:  46; 6HR MAX TEMP:  58; 6HR PCP:  0.03;

SOCORRO        NOT AVBL

$$
NMZ524>526-539-540-280700-
SOUTHCENTRAL MOUNTAINS

CITY           SKY/WX    TMP DP  RH WIND       PRES   REMARKS
RUIDOSO        NOT AVBL

$$
NMZ527>531-280700-
NORTHEAST HIGHLANDS/NORTHEAST PLAINS

CITY           SKY/WX    TMP DP  RH WIND       PRES   REMARKS
LAS VEGAS      CLOUDY    39  31  72 N15       30.28R WCI  31
6HR MIN TEMP:  38; 6HR MAX TEMP:  42;

RATON          CLOUDY    41  30  65 NE16      30.28R
6HR MIN TEMP:  41; 6HR MAX TEMP:  44;

CLAYTON        CLOUDY    43  35  73 N13       30.24R
6HR MIN TEMP:  40; 6HR MAX TEMP:  43; 6HR PCP: TRACE;


$$
NMZ532>537-280700-
EASTCENTRAL PLAINS

CITY           SKY/WX    TMP DP  RH WIND       PRES   REMARKS
TUCUMCARI      CLOUDY    43  38  82 CALM      30.23R
6HR MIN TEMP:  41; 6HR MAX TEMP:  43; 6HR PCP: TRACE;

CANNON AFB     CLOUDY    39  37  89 N24       30.20R WCI  29
6HR MIN TEMP:  38; 6HR MAX TEMP:  40; 6HR PCP:  0.01;

CLOVIS AIRPORT CLOUDY    39  36  87 NE23G29   30.21R WCI  29

$$
NMZ028-029-538-280700-
SOUTHEAST PLAINS

CITY           SKY/WX    TMP DP  RH WIND       PRES   REMARKS
ROSWELL        MOCLDY    45  35  68 N9        30.25R
6HR MIN TEMP:  45; 6HR MAX TEMP:  50;

ARTESIA        CLOUDY    46  34  61 N12G18    30.25S
CARLSBAD       CLOUDY    48  33  56 N23G30    30.23R
6HR MIN TEMP:  48; 6HR MAX TEMP:  54;

HOBBS          CLOUDY    43  37  81 N21G26    30.18R


$$



USA.gov is the U.S. government's official web portal to all federal, state and local government web resources and services.